Location: Banksville Park
(38.5557°N, 75.1182°W)
Time: 21:29:32
(UTC+00:00)

Cosmos 1697 Rocket - Pass Details

Date: 19 September 2020
Orbit: 832 x 844 km, 71.0° (Epoch: 30 October)

Event Time Altitude Azimuth Distance (km) Brightness Sun altitude
Exits shadow 09:19:59 16° 301° (WNW) 2,064 4.3 -17.4°
Maximum altitude 09:20:33 16° 309° (NW) 2,052 4.4 -17.3°
Drops below altitude 10° 09:23:54 10° 346° (NNW) 2,447 5.1 -16.7°
Sets 09:27:23 0° 8° (N) 3,386 6.1 -16.0°
